This demonstration page uses our WeatherBlox Daily Observations layout. Learn more.

Left ArrowRight Arrow

44.89941, -97.11507

Hourly Observations for October 1, 2021

Temp ( °F °C ) Dew Point ( °F °C ) Humidity (%) Winds ( mph kmh ) Pressure ( in mb ) Visibility ( mi km ) Precip ( " mm )
4:02 pm 16:02 Cloudy 67 19.4 64 17.8 91 91 ENE 7 11 29.96 1015 10 16 N/A
4:49 pm 16:49 Mostly Cloudy 66 19 64 18 94 94 ENE 8 13 29.96 1015 10 16 N/A
4:53 pm 16:53 Mostly Cloudy 68 20 64 17.8 87 87 NE 8 13 29.99 1016 10 16 N/A
5:08 pm 17:08 Mostly Cloudy 68 20 64 17.8 87 87 ENE 6 9 29.94 1014 10 16 N/A
5:49 pm 17:49 Mostly Cloudy 66 19 63 17 88 88 ENE 6 9 29.95 1014 10 16 N/A
5:53 pm 17:53 Mostly Cloudy 67 19.4 63 17.2 87 87 ENE 7 11 29.99 1016 10 16 N/A
6:29 pm 18:29 Cloudy 65 18.3 63 17.2 93 93 NE 8 13 29.96 1014 10 16 N/A
6:53 pm 18:53 Cloudy 65 18.3 63 17.2 93 93 NNE 7 11 29.99 1016 10 16 N/A
7:28 pm 19:28 Cloudy with Mist and Fog 63 17.2 62 16.7 97 97 NNE 9 15 29.96 1015 5 8 N/A
7:43 pm 19:43 Cloudy with Mist and Fog 63 17.2 62 16.7 97 97 N 9 15 29.97 1015 3 4 N/A
7:53 pm 19:53 Cloudy with Mist and Fog 63 17.2 62 16.7 97 97 NNE 7 11 30.01 1016 4 6 N/A
8:53 pm 20:53 Cloudy with Mist and Fog 62 16.7 62 16.7 100 100 NNE 10 17 30.01 1016 4 6 0.00 0.00
9:39 pm 21:39 Cloudy with Light Rain 62 16.7 61 16.1 96 96 N 9 15 29.98 1015 3 4 0.04 1.02
9:46 pm 21:46 Cloudy with Light Rain 61 16.1 61 16.1 100 100 N 9 15 29.98 1015 5 8 0.04 1.02
9:53 pm 21:53 Cloudy with Mist and Fog 61 16.1 61 16.1 100 100 N 8 13 30.00 1016 6 10 0.04 1.02
10:40 pm 22:40 Cloudy with Rain 61 16.1 60 15.6 97 97 NNW 8 13 29.98 1015 3 5 0.07 1.78
10:46 pm 22:46 Cloudy with Heavy Rain 60 15.6 60 15.6 100 100 N 9 15 29.98 1015 2 3 0.16 4.06
10:53 pm 22:53 Cloudy with Heavy Rain 60 15.6 60 15.6 100 100 N 12 19 30.00 1016 1 2 0.29 7.37
11:16 pm 23:16 Cloudy with Heavy Rain 60 15.6 60 15.6 100 100 ENE 5 7 29.98 1015 2 2 0.36 9.14
11:32 pm 23:32 Cloudy with Heavy Rain 60 15.6 60 15.6 100 100 N 8 13 29.98 1015 2 3 0.48 12.19
11:36 pm 23:36 Cloudy with Heavy Rain 60 15.6 60 15.6 100 100 N 10 17 29.98 1015 2 3 0.51 12.95
11:45 pm 23:45 Cloudy with Heavy Rain 60 15.6 60 15.6 100 100 N 7 11 29.98 1015 2 3 0.56 14.22
11:53 pm 23:53 Cloudy with Rain 60 15.6 60 15.6 100 100 N 8 13 30.01 1016 3 4 0.58 14.73

Powered by AerisWeather